, FL

(GMT )
Crestview

Weather History for KEGI - May, 2014

Change the Weather History Date:

Tuesday, May 13, 2014

  Actual Average Record
Temperature  
Mean Temperature 74 °F -  
Max Temperature 86 °F - - ()
Min Temperature 62 °F - - ()
Cooling Degree Days 9    
Growing Degree Days 24 (Base 50)    
Moisture  
Dew Point 67 °F    
Average Humidity 93    
Maximum Humidity 100    
Minimum Humidity 60    
Precipitation  
Precipitation 0.00 in - - ()
Sea Level Pressure  
Sea Level Pressure 30.07 in    
Wind  
Wind Speed 2 mph (East)    
Max Wind Speed 15 mph    
Max Gust Speed 18 mph    
Visibility 4 miles    
Events Fog    
Averages and records for this station are not official NWS values.
T = Trace of Precipitation, MM = Missing Value Source: NWS Daily Summary

Daily Weather History Graph

Daily Weather History Graph

Search for Another Location

Airport or City:

Trip Planner

Search our weather history database for the weather conditions in past years. The results will help you decide how hot, cold, wet, or windy it might be!

Date:

Astronomy

May. 13, 2014 Rise Set
Actual Time 5:52 AM CDT 7:32 PM CDT
Civil Twilight 5:26 AM CDT 7:58 PM CDT
Nautical Twilight 4:54 AM CDT 8:30 PM CDT
Astronomical Twilight 4:21 AM CDT 9:03 PM CDT
Moon 6:38 PM CDT (5/13) 5:02 AM CDT (5/13)
Length of Visible Light 14h 32m
Length of Day
13h 39m
Waxing Gibbous, 99% of the Moon is Illuminated
May 13
Waxing Gibbous
May 14
Full
May 21
Last Quarter
May 28
New
Jun 5
First Quarter

Hourly Weather History & Observations

Time (CDT) Temp. Heat Index Dew Point Humidity Pressure Visibility Wind Dir Wind Speed Gust Speed Precip Events Conditions
12:03 AM 66.2 °F - 66.2 °F 100% 30.07 in 0.5 mi Calm Calm - N/A Fog Fog
12:08 AM 66.2 °F - 66.2 °F 100% 30.07 in 0.8 mi Calm Calm - N/A   Clear
12:13 AM 66.2 °F - 66.2 °F 100% 30.07 in 3.0 mi Calm Calm - N/A   Clear
12:23 AM 66.2 °F - 66.2 °F 100% 30.07 in 2.0 mi NE 2.3 mph - N/A   Clear
12:28 AM 64.4 °F - 64.4 °F 100% 30.07 in 1.8 mi Calm Calm - N/A   Clear
12:33 AM 64.4 °F - 64.4 °F 100% 30.07 in 2.5 mi Calm Calm - N/A   Clear
12:38 AM 64.4 °F - 64.4 °F 100% 30.07 in 4.0 mi Calm Calm - N/A   Clear
12:58 AM 63.9 °F - 63.9 °F 100% 30.06 in 6.0 mi Calm Calm - N/A   Clear
1:03 AM 64.4 °F - 64.4 °F 100% 30.06 in 1.8 mi North 2.3 mph - N/A   Clear
1:08 AM 64.4 °F - 64.4 °F 100% 30.06 in 0.8 mi Calm Calm - N/A   Clear
1:13 AM 64.4 °F - 64.4 °F 100% 30.06 in 0.8 mi Calm Calm - N/A   Clear
1:18 AM 64.4 °F - 64.4 °F 100% 30.06 in 0.5 mi North 1.2 mph - N/A Fog Fog
1:28 AM 64.4 °F - 64.4 °F 100% 30.06 in 1.0 mi North 1.2 mph - N/A   Clear
1:33 AM 62.6 °F - 62.6 °F 100% 30.06 in 0.5 mi Calm Calm - N/A Fog Fog
1:38 AM 64.4 °F - 64.4 °F 100% 30.06 in 0.2 mi Calm Calm - N/A Fog Fog
1:53 AM 62.6 °F - 62.6 °F 100% 30.06 in 0.5 mi Calm Calm - N/A Fog Fog
1:58 AM 62.6 °F - 62.6 °F 100% 30.06 in 0.2 mi Calm Calm - N/A Fog Fog
2:28 AM 64.4 °F - 64.4 °F 100% 30.06 in 0.5 mi Calm Calm - N/A Fog Fog
2:33 AM 62.6 °F - 62.6 °F 100% 30.06 in 0.2 mi Calm Calm - N/A Fog Fog
2:58 AM 63.1 °F - 63.1 °F 100% 30.06 in 0.2 mi Calm Calm - N/A Fog Fog
3:38 AM 62.6 °F - 62.6 °F 100% 30.06 in 0.5 mi ENE 3.5 mph - N/A Fog Fog
3:58 AM 63.7 °F - 63.7 °F 100% 30.06 in 0.5 mi ENE 3.5 mph - N/A Fog Fog
4:23 AM 64.4 °F - 64.4 °F 100% 30.06 in 0.2 mi ENE 3.5 mph - N/A Fog Fog
4:29 AM 64.4 °F - 64.4 °F 100% 30.07 in 0.2 mi NE 2.3 mph - N/A Fog Fog
4:54 AM 64.4 °F - 64.4 °F 100% 30.07 in 0.5 mi North 2.3 mph - N/A Fog Fog
4:58 AM 64.9 °F - 64.9 °F 100% 30.08 in 0.5 mi North 2.3 mph - N/A Fog Fog
5:03 AM 64.4 °F - 64.4 °F 100% 30.06 in 0.8 mi NNE 2.3 mph - N/A   Mist
5:13 AM 64.4 °F - 64.4 °F 100% 30.07 in 0.5 mi NE 2.3 mph - N/A Fog Fog
5:58 AM 64.9 °F - 64.9 °F 100% 30.09 in 0.2 mi NNE 3.5 mph - N/A Fog Fog
6:58 AM 65.5 °F - 65.5 °F 100% 30.11 in 0.2 mi NE 2.3 mph - N/A Fog Fog
7:03 AM 66.2 °F - 66.2 °F 100% 30.10 in 0.5 mi NE 3.5 mph - N/A Fog Fog
7:18 AM 66.2 °F - 66.2 °F 100% 30.10 in 0.8 mi NE 2.3 mph - N/A   Clear
8:58 AM 78.1 °F - 72.9 °F 84% 30.12 in 10.0 mi SE 8.1 mph - N/A   Clear
8:59 AM 78.1 °F - 72.9 °F 84% 30.12 in 10.0 mi SE 8.1 mph - N/A   Partly Cloudy
9:55 AM 82.0 °F 87.4 °F 73.0 °F 74% 30.11 in 10.0 mi South 10.4 mph - N/A   Partly Cloudy
11:59 AM 84.7 °F 90.7 °F 72.3 °F 66% 30.12 in 10.0 mi SE 8.1 mph - N/A   Scattered Clouds
12:55 PM 84.9 °F 90.7 °F 72.1 °F 65% 30.09 in 10.0 mi South 11.5 mph 18.4 mph N/A   Partly Cloudy
1:59 PM 85.8 °F 90.8 °F 70.7 °F 60% 30.09 in 10.0 mi South 15.0 mph - N/A   Scattered Clouds
2:56 PM 86.2 °F 91.4 °F 71.1 °F 60% 30.06 in 10.0 mi South 13.8 mph - N/A   Partly Cloudy
3:55 PM 86.0 °F 91.1 °F 70.7 °F 60% 30.04 in 10.0 mi South 11.5 mph 18.4 mph N/A   Partly Cloudy
4:55 PM 83.8 °F 88.3 °F 70.7 °F 64% 30.04 in 10.0 mi SSE 10.4 mph - N/A   Partly Cloudy
5:55 PM 81.9 °F 85.4 °F 69.4 °F 66% 30.04 in 10.0 mi SSE 11.5 mph - N/A   Partly Cloudy
6:55 PM 79.2 °F - 70.7 °F 75% 30.03 in 10.0 mi South 9.2 mph - N/A   Partly Cloudy
7:55 PM 75.4 °F - 71.4 °F 87% 30.06 in 10.0 mi South 6.9 mph - N/A   Partly Cloudy
8:55 PM 73.0 °F - 72.1 °F 97% 30.06 in 10.0 mi South 4.6 mph - N/A   Partly Cloudy
9:55 PM 70.5 °F - 70.3 °F 99% 30.06 in 10.0 mi South 2.3 mph - N/A   Clear
10:55 PM 68.2 °F - 68.2 °F 100% 30.08 in 10.0 mi North 1.2 mph - N/A   Clear
11:55 PM 67.6 °F - 67.6 °F 100% 30.06 in 10.0 mi North 1.2 mph - N/A   Partly Cloudy